Time,TemperatureF,DewpointF,PressureIn,WindDirection,WindDirectionDegrees,WindSpeedMPH,WindSpeedGustMPH,Humidity,HourlyPrecipIn,Conditions,Clouds,dailyrainin,SoftwareType,DateUTC
2013-02-11 00:00:00,42.0,36.0,-100.00,WSW,251,2.0,-999.0,80,-99.99,,,-99.99,,2013-02-11 08:00:00,
2013-02-11 01:00:00,43.0,36.0,-100.00,WNW,292,5.0,-999.0,76,-99.99,,,-99.99,,2013-02-11 09:00:00,
2013-02-11 02:00:00,42.0,35.0,-100.00,West,277,3.0,-999.0,76,-99.99,,,-99.99,,2013-02-11 10:00:00,
2013-02-11 03:00:00,42.0,35.0,-100.00,WSW,256,2.0,-999.0,77,-99.99,,,-99.99,,2013-02-11 11:00:00,
2013-02-11 04:00:00,42.0,36.0,-100.00,South,188,2.0,-999.0,78,-99.99,,,-99.99,,2013-02-11 12:00:00,
2013-02-11 06:00:00,41.0,35.0,-100.00,SW,222,3.0,-999.0,80,-99.99,,,-99.99,,2013-02-11 14:00:00,
2013-02-11 07:00:00,41.0,35.0,-100.00,SW,222,2.0,-999.0,80,-99.99,,,-99.99,,2013-02-11 15:00:00,
2013-02-11 08:00:00,41.0,35.0,-100.00,SSW,196,5.0,-999.0,80,-99.99,,,-99.99,,2013-02-11 16:00:00,
2013-02-11 09:00:00,42.0,36.0,-100.00,South,182,5.0,-999.0,80,-99.99,,,-99.99,,2013-02-11 17:00:00,
2013-02-11 10:00:00,43.0,37.0,-100.00,SSW,197,5.0,-999.0,78,-99.99,,,-99.99,,2013-02-11 18:00:00,
2013-02-11 11:00:00,44.0,37.0,-100.00,SW,223,5.0,-999.0,75,-99.99,,,-99.99,,2013-02-11 19:00:00,
2013-02-11 12:00:00,44.0,37.0,-100.00,SW,214,6.0,-999.0,76,-99.99,,,-99.99,,2013-02-11 20:00:00,
2013-02-11 13:00:00,43.0,38.0,-100.00,South,176,7.0,-999.0,84,-99.99,,,-99.99,,2013-02-11 21:00:00,
2013-02-11 14:00:00,42.0,40.0,-100.00,South,179,7.0,-999.0,93,-99.99,,,-99.99,,2013-02-11 22:00:00,
2013-02-11 15:00:00,43.0,41.0,-100.00,SSE,166,5.0,-999.0,91,-99.99,,,-99.99,,2013-02-11 23:00:00,
2013-02-11 15:52:00,43.0,41.0,-100.00,SSE,166,5.0,-999.0,91,-99.99,,,-99.99,,2013-02-11 23:52:00,
2013-02-11 16:00:00,43.0,41.0,-100.00,SSE,163,5.0,-999.0,92,-99.99,,,-99.99,,2013-02-12 00:00:00,
2013-02-11 17:00:00,43.0,41.0,-100.00,South,186,5.0,-999.0,93,-99.99,,,-99.99,,2013-02-12 01:00:00,
2013-02-11 18:00:00,43.0,41.0,-100.00,South,186,3.0,-999.0,94,-99.99,,,-99.99,,2013-02-12 02:00:00,
2013-02-11 19:00:00,44.0,42.0,-100.00,SSW,197,3.0,-999.0,92,-99.99,,,-99.99,,2013-02-12 03:00:00,
2013-02-11 20:00:00,44.0,41.0,-100.00,SSW,206,6.0,-999.0,88,-99.99,,,-99.99,,2013-02-12 04:00:00,
2013-02-11 21:00:00,44.0,41.0,-100.00,SSW,205,6.0,-999.0,89,-99.99,,,-99.99,,2013-02-12 05:00:00,
2013-02-11 22:00:00,44.0,42.0,-100.00,SSW,212,5.0,-999.0,91,-99.99,,,-99.99,,2013-02-12 06:00:00,
2013-02-11 23:00:00,44.0,41.0,-100.00,SW,217,5.0,-999.0,90,-99.99,,,-99.99,,2013-02-12 07:00:00,